Hourly Weather Navoiy

Today, 8 July, Wednesday

Time Temperature Precipitation Wind Pressure Humidity
00:00 +29°C° 0 mm 5 mps 720 mmHg 18%
01:00 +28°C° 0 mm 5 mps 720 mmHg 19%
02:00 +28°C° 0 mm 4 mps 720 mmHg 20%
03:00 +27°C° 0 mm 3 mps 720 mmHg 22%
04:00 +26°C° 0 mm 3 mps 720 mmHg 23%
05:00 +28°C° 0 mm 3 mps 720 mmHg 20%
06:00 +31°C° 0 mm 3 mps 721 mmHg 18%
07:00 +34°C° 0 mm 3 mps 721 mmHg 15%
08:00 +36°C° 0 mm 3 mps 721 mmHg 14%
09:00 +37°C° 0 mm 3 mps 721 mmHg 13%
10:00 +39°C° 0 mm 2 mps 721 mmHg 11%
11:00 +40°C° 0 mm 2 mps 721 mmHg 11%
12:00 +40°C° 0 mm 1 mps 720 mmHg 11%
13:00 +41°C° 0 mm 1 mps 720 mmHg 10%
14:00 +42°C° 0 mm 1 mps 720 mmHg 10%
15:00 +42°C° 0 mm 2 mps 720 mmHg 9%
16:00 +43°C° 0 mm 3 mps 720 mmHg 9%
17:00 +40°C° 0 mm 3 mps 720 mmHg 10%
18:00 +38°C° 0 mm 4 mps 720 mmHg 11%
19:00 +37°C° 0 mm 5 mps 720 mmHg 12%
20:00 +35°C° 0 mm 5 mps 720 mmHg 13%
21:00 +33°C° 0 mm 5 mps 720 mmHg 14%
22:00 +32°C° 0 mm 5 mps 720 mmHg 15%
23:00 +32°C° 0 mm 5 mps 720 mmHg 16%

Tomorrow, 9 July, Thursday

Time Temperature Precipitation Wind Pressure Humidity
00:00 +30°C° 0 mm 4 mps 719 mmHg 18%
01:00 +30°C° 0 mm 4 mps 719 mmHg 20%
02:00 +29°C° 0 mm 4 mps 719 mmHg 20%
03:00 +29°C° 0 mm 3 mps 719 mmHg 21%
04:00 +28°C° 0 mm 2 mps 719 mmHg 22%
05:00 +30°C° 0 mm 2 mps 719 mmHg 20%
06:00 +32°C° 0 mm 2 mps 719 mmHg 18%
07:00 +35°C° 0 mm 2 mps 719 mmHg 17%
08:00 +35°C° 0 mm 1 mps 719 mmHg 15%
09:00 +37°C° 0 mm 1 mps 719 mmHg 14%
10:00 +40°C° 0 mm 1 mps 719 mmHg 12%
11:00 +41°C° 0 mm 1 mps 719 mmHg 11%
12:00 +42°C° 0 mm 2 mps 719 mmHg 10%
13:00 +43°C° 0 mm 2 mps 718 mmHg 9%
14:00 +44°C° 0 mm 3 mps 718 mmHg 9%
15:00 +44°C° 0 mm 4 mps 718 mmHg 9%
16:00 +44°C° 0 mm 4 mps 718 mmHg 9%
17:00 +42°C° 0 mm 4 mps 718 mmHg 10%
18:00 +40°C° 0 mm 4 mps 718 mmHg 11%
19:00 +37°C° 0 mm 4 mps 718 mmHg 12%
20:00 +36°C° 0 mm 5 mps 718 mmHg 14%
21:00 +34°C° 0 mm 6 mps 718 mmHg 16%
22:00 +33°C° 0 mm 7 mps 719 mmHg 17%
23:00 +32°C° 0 mm 6 mps 719 mmHg 19%

Day after tomorrow, 10 July, Friday

Time Temperature Precipitation Wind Pressure Humidity
00:00 +30°C° 0 mm 5 mps 719 mmHg 21%
01:00 +30°C° 0 mm 5 mps 718 mmHg 23%
02:00 +29°C° 0 mm 4 mps 718 mmHg 24%
03:00 +28°C° 0 mm 3 mps 718 mmHg 26%
04:00 +27°C° 0 mm 2 mps 718 mmHg 27%
05:00 +30°C° 0 mm 2 mps 718 mmHg 24%
06:00 +32°C° 0 mm 2 mps 719 mmHg 21%
07:00 +35°C° 0 mm 2 mps 719 mmHg 18%
08:00 +37°C° 0 mm 4 mps 719 mmHg 16%
09:00 +40°C° 0 mm 5 mps 719 mmHg 14%
10:00 +41°C° 0 mm 6 mps 719 mmHg 12%
11:00 +42°C° 0 mm 6 mps 719 mmHg 12%
12:00 +42°C° 0 mm 6 mps 719 mmHg 12%
13:00 +43°C° 0 mm 7 mps 718 mmHg 11%
14:00 +42°C° 0 mm 6 mps 718 mmHg 12%
15:00 +41°C° 0 mm 5 mps 718 mmHg 13%
16:00 +41°C° 0 mm 4 mps 718 mmHg 13%
17:00 +38°C° 0 mm 4 mps 718 mmHg 15%
18:00 +36°C° 0 mm 3 mps 718 mmHg 16%
19:00 +34°C° 0 mm 3 mps 718 mmHg 17%
20:00 +33°C° 0 mm 4 mps 718 mmHg 20%
21:00 +30°C° 0 mm 5 mps 719 mmHg 24%
22:00 +29°C° 0 mm 6 mps 719 mmHg 27%
23:00 +28°C° 0 mm 5 mps 718 mmHg 29%

11 July, Saturday

Time Temperature Precipitation Wind Pressure Humidity
00:00 +27°C° 0 mm 4 mps 718 mmHg 31%
01:00 +27°C° 0 mm 3 mps 718 mmHg 33%
02:00 +26°C° 0 mm 2 mps 718 mmHg 34%
03:00 +25°C° 0 mm 2 mps 718 mmHg 36%
04:00 +25°C° 0 mm 2 mps 718 mmHg 38%
05:00 +27°C° 0 mm 2 mps 719 mmHg 34%
06:00 +29°C° 0 mm 3 mps 719 mmHg 31%
07:00 +31°C° 0 mm 3 mps 720 mmHg 28%
08:00 +34°C° 0 mm 3 mps 720 mmHg 25%
09:00 +36°C° 0 mm 3 mps 720 mmHg 22%
10:00 +37°C° 0 mm 3 mps 720 mmHg 18%
11:00 +38°C° 0 mm 4 mps 720 mmHg 17%
12:00 +40°C° 0 mm 5 mps 719 mmHg 16%
13:00 +41°C° 0 mm 6 mps 719 mmHg 15%
14:00 +41°C° 0 mm 6 mps 719 mmHg 15%
15:00 +41°C° 0 mm 7 mps 719 mmHg 14%
16:00 +41°C° 0 mm 7 mps 719 mmHg 14%
17:00 +38°C° 0.2 mm 6 mps 719 mmHg 18%
18:00 +35°C° 0.2 mm 5 mps 719 mmHg 22%
19:00 +33°C° 0.2 mm 4 mps 719 mmHg 26%
20:00 +32°C° 0.1 mm 4 mps 719 mmHg 32%
21:00 +29°C° 0.1 mm 4 mps 719 mmHg 38%
22:00 +27°C° 0.1 mm 4 mps 719 mmHg 43%
23:00 +27°C° 0 mm 3 mps 719 mmHg 44%

12 July, Sunday

Time Temperature Precipitation Wind Pressure Humidity
00:00 +26°C° 0 mm 2 mps 719 mmHg 44%
01:00 +26°C° 0 mm 1 mps 719 mmHg 44%
02:00 +26°C° 0 mm 2 mps 719 mmHg 43%
03:00 +26°C° 0 mm 3 mps 718 mmHg 41%
04:00 +26°C° 0 mm 3 mps 718 mmHg 39%
05:00 +29°C° 0 mm 4 mps 719 mmHg 33%
06:00 +32°C° 0 mm 4 mps 719 mmHg 26%
07:00 +35°C° 0 mm 5 mps 719 mmHg 19%
08:00 +36°C° 0 mm 5 mps 719 mmHg 17%
09:00 +39°C° 0 mm 6 mps 719 mmHg 15%
10:00 +41°C° 0 mm 7 mps 719 mmHg 13%
11:00 +41°C° 0 mm 7 mps 719 mmHg 13%
12:00 +42°C° 0 mm 6 mps 718 mmHg 13%
13:00 +44°C° 0 mm 6 mps 718 mmHg 12%
14:00 +44°C° 0 mm 6 mps 718 mmHg 12%
15:00 +44°C° 0 mm 7 mps 718 mmHg 12%
16:00 +44°C° 0 mm 7 mps 718 mmHg 12%
17:00 +41°C° 0 mm 6 mps 718 mmHg 14%
18:00 +39°C° 0 mm 5 mps 718 mmHg 15%
19:00 +36°C° 0 mm 4 mps 717 mmHg 17%
20:00 +36°C° 0 mm 5 mps 717 mmHg 18%
21:00 +35°C° 0 mm 6 mps 718 mmHg 20%
22:00 +35°C° 0 mm 6 mps 718 mmHg 21%
23:00 +34°C° 0 mm 6 mps 717 mmHg 23%

13 July, Monday

Time Temperature Precipitation Wind Pressure Humidity
00:00 +33°C° 0 mm 5 mps 717 mmHg 25%
01:00 +32°C° 0 mm 5 mps 717 mmHg 28%
02:00 +30°C° 0 mm 4 mps 717 mmHg 29%
03:00 +29°C° 0 mm 4 mps 717 mmHg 31%
04:00 +28°C° 0 mm 3 mps 717 mmHg 32%
05:00 +30°C° 0 mm 4 mps 717 mmHg 28%
06:00 +33°C° 0 mm 4 mps 717 mmHg 25%
07:00 +35°C° 0 mm 5 mps 718 mmHg 21%
08:00 +36°C° 0 mm 4 mps 718 mmHg 19%
09:00 +38°C° 0 mm 4 mps 717 mmHg 17%
10:00 +40°C° 0 mm 4 mps 717 mmHg 16%
11:00 +41°C° 0 mm 4 mps 717 mmHg 15%
12:00 +42°C° 0 mm 4 mps 717 mmHg 14%
13:00 +42°C° 0 mm 3 mps 717 mmHg 13%
14:00 +42°C° 0 mm 3 mps 716 mmHg 13%
15:00 +42°C° 0 mm 3 mps 716 mmHg 13%
16:00 +42°C° 0 mm 3 mps 716 mmHg 13%
17:00 +40°C° 0 mm 3 mps 716 mmHg 14%
18:00 +39°C° 0 mm 3 mps 716 mmHg 16%
19:00 +37°C° 0 mm 4 mps 716 mmHg 17%
20:00 +36°C° 0 mm 3 mps 716 mmHg 20%
21:00 +34°C° 0 mm 3 mps 716 mmHg 22%
22:00 +32°C° 0 mm 2 mps 716 mmHg 25%
23:00 +31°C° 0 mm 2 mps 716 mmHg 24%
Show more